contacte
inicio
- ACTUALIZADO a las 16:14
Cámara en vivo
A 5 metros de altura
Dirección Noreste
Datos del día de Hoy
Parameter                   Max   Max Time        Min   Min Time    Average
Wind Direction              360       9:42          5       8:19         68
Wind Speed                   24       8:53          0       0:00          2
Wind Gust                    24       8:53          0       0:00          7
In Humidity                  45       0:00         34      15:53         43
Humidity                     70       7:35         25      15:38         56
In Temp                    33.4      15:58       30.1       8:42       31.6
Out Temp                   41.3      15:59       22.9       7:31       28.7
Raw Barometer           1018.82      11:38    1016.80      15:32    1017.61
Total Rain               266.40       0:00     266.40       0:00     266.40




3/9/26
Time         Wind Dir   Wind Spd  Wind Gust     Hum In   Humidity    Temp In       Temp  Raw Barom   Tot Rain
                    °      km/hr      km/hr          %          %         °C         °C         mb         mm
0:00              250          0          3         45         58       31.6       28.6    1017.30     266.40
0:20              251          2          3         44         58       31.7       28.2    1017.27     266.40
0:40              252          0          3         44         58       31.8       28.1    1017.30     266.40
1:00              279          0         10         44         58       31.8       27.6    1017.27     266.40
1:20              279          0          0         44         59       31.8       27.2    1017.23     266.40
1:40              279          0          0         44         61       31.7       26.5    1017.23     266.40
2:00              279          0          0         44         62       31.6       26.2    1017.20     266.40
2:20              279          0          0         44         62       31.6       25.9    1017.20     266.40
2:40              279          0          0         44         64       31.6       25.8    1017.44     266.40
3:00              279          0          0         44         64       31.4       25.8    1017.23     266.40
3:20              279          0          0         44         64       31.4       25.2    1017.10     266.40
3:40              279          0          0         44         66       31.3       25.1    1017.27     266.40
4:00              279          0          0         45         65       31.3       25.1    1017.27     266.40
4:19              279          0          0         44         66       31.2       24.2    1017.34     266.40
4:40              279          0          0         44         67       31.2       23.8    1017.34     266.40
5:00              279          0          0         44         67       31.1       23.8    1017.37     266.40
5:20              279          0          0         44         68       31.0       23.3    1017.47     266.40
5:40              279          0          0         44         69       30.9       23.4    1017.40     266.40
6:00              279          0          0         44         68       30.8       23.3    1017.27     266.40
6:20              279          0          0         44         68       30.7       23.0    1017.07     266.40
6:40              300          0          0         44         68       30.6       23.1    1017.03     266.40
7:00              300          0          0         44         68       30.6       23.0    1017.17     266.40
7:20              300          0          0         44         69       30.5       22.9    1017.37     266.40
7:40              300          0          2         44         70       30.4       22.9    1017.51     266.40
8:00              300          0          2         44         70       30.3       22.9    1017.74     266.40
8:20                5          2          8         45         69       30.2       23.3    1017.84     266.40
8:40               29          2         23         45         67       30.2       24.2    1017.94     266.40
9:00               62         10         24         44         62       30.2       25.3    1018.08     266.40
9:20               71          5         16         44         60       30.6       26.3    1018.11     266.40
9:40               65          6         14         43         58       30.9       27.0    1018.42     266.40
10:00              67          5         14         43         57       31.0       27.3    1018.35     266.40
10:20              51          8         18         43         56       31.3       28.1    1018.38     266.40
10:40              61          6         14         42         53       31.6       29.3    1018.32     266.40
11:00              80         11         14         42         51       32.0       30.2    1018.38     266.40
11:20             102          3         13         42         50       32.2       30.6    1018.55     266.40
11:40              79          3         14         42         49       32.2       31.3    1018.82     266.40
12:00              86          5         14         42         47       32.4       31.9    1018.72     266.40
12:20              80          3         13         42         49       32.4       31.7    1018.65     266.40
12:40              35          5         13         42         46       32.4       32.9    1018.55     266.40
13:00              71          6         14         42         45       32.6       33.9    1018.42     266.40
13:20              24          6         14         42         42       32.6       34.6    1018.25     266.40
13:40              96          0          8         42         41       32.6       35.3    1017.84     266.40
14:00              95          0         16         42         38       32.6       36.7    1017.40     266.40
14:20              78          8         11         42         35       32.7       38.0    1017.20     266.40
14:39             109          2          6         41         32       32.7       38.4    1017.03     266.40
15:00              61          0         11         40         29       32.8       39.7    1017.03     266.40
15:20               9          0          8         39         28       32.7       40.1    1016.90     266.40
15:40             167          0          5         39         25       32.9       40.6    1016.93     266.40
16:00             311          2          8         34         26       33.4       41.3    1016.90     266.40
Miembro de: